FW5262 Weather Reports


Display with metric or nautical units.
time (UTC)temp
F
wind
direction
speed
MPH
gust
MPH
rain 1hr
in
rain 24hr
in
rain mn
in
humidity
%
barometer
mb
20260507044951 56 36 3.0 9.0 0.00 0.00 0.00 76 946.2
20260507044451 56 0 4.0 9.0 0.00 0.00 0.00 76 946.2
20260507043950 56 65 5.0 9.0 0.00 0.00 0.00 75 946.0
20260507043449 57 67 5.0 10.0 0.00 0.00 0.00 75 946.0
20260507042951 57 69 5.0 10.0 0.00 0.00 0.00 75 946.0
20260507042450 57 49 5.0 11.0 0.00 0.00 0.00 75 946.0
20260507041949 57 56 6.0 11.0 0.00 0.00 0.00 75 946.1
20260507041443 57 81 5.0 11.0 0.00 0.00 0.00 75 945.9
20260507040938 57 32 5.0 10.0 0.00 0.00 0.00 76 945.9
20260507040432 57 15 5.0 11.0 0.00 0.00 0.00 76 945.9
20260507035926 57 15 6.0 12.0 0.00 0.00 0.00 76 945.8
20260507035420 57 48 6.0 12.0 0.00 0.00 0.00 76 945.7
20260507035153 57 62 5.0 10.0 0.00 0.00 0.00 76 945.6
20260507034638 57 39 5.0 11.0 0.00 0.00 0.00 76 945.6
20260507033902 57 39 5.0 11.0 0.00 0.00 0.00 76 945.6
20260507033356 57 52 5.0 10.0 0.00 0.00 0.00 75 945.7
20260507032850 57 23 5.0 10.0 0.00 0.00 0.00 75 945.6
20260507032614 57 39 5.0 10.0 0.00 0.00 0.00 75 945.6
20260507031837 58 61 5.0 11.0 0.00 0.00 0.00 75 945.7
20260507031332 58 46 5.0 12.0 0.00 0.00 0.00 75 945.4
20260507030827 58 38 5.0 12.0 0.00 0.00 0.00 74 945.4
20260507030822 58 65 5.0 11.0 0.00 0.00 0.00 74 945.5
20260507025814 58 46 5.0 9.0 0.00 0.00 0.00 74 945.4
20260507025308 58 30 5.0 10.0 0.00 0.00 0.00 74 945.3
20260507024802 58 42 5.0 10.0 0.00 0.00 0.00 74 945.4
20260507024255 58 55 4.0 10.0 0.00 0.00 0.00 74 945.2
20260507023749 58 54 4.0 10.0 0.00 0.00 0.00 74 945.1
20260507023244 58 28 4.0 10.0 0.00 0.00 0.00 74 945.1
20260507022738 58 22 4.0 8.0 0.00 0.00 0.00 74 945.2
20260507022231 58 34 3.0 8.0 0.00 0.00 0.00 74 945.2
20260507021726 58 11 3.0 6.0 0.00 0.00 0.00 73 945.0
20260507021220 59 41 3.0 8.0 0.00 0.00 0.00 73 944.9
20260507020714 59 0 3.0 8.0 0.00 0.00 0.00 72 944.8
20260507020438 59 9 3.0 8.0 0.00 0.00 0.00 71 944.8
20260507015702 60 39 3.0 8.0 0.00 0.00 0.00 70 944.9
20260507015155 60 26 4.0 8.0 0.00 0.00 0.00 70 944.8
20260507014650 60 55 4.0 9.0 0.00 0.00 0.00 70 944.7
20260507014143 61 62 4.0 9.0 0.00 0.00 0.00 69 944.8
20260507013638 61 38 4.0 8.0 0.00 0.00 0.00 69 944.7
20260507013132 61 44 4.0 8.0 0.00 0.00 0.00 68 944.7
20260507012626 62 50 4.0 9.0 0.00 0.00 0.00 67 944.7
20260507012119 62 40 6.0 12.0 0.00 0.00 0.00 67 944.6
20260507011614 62 59 6.0 12.0 0.00 0.00 0.00 66 944.4
20260507011339 63 43 5.0 10.0 0.00 0.00 0.00 66 944.4
20260507010601 63 63 5.0 10.0 0.00 0.00 0.00 65 944.4
20260507010056 63 61 5.0 10.0 0.00 0.00 0.00 64 944.4
20260507005550 64 12 5.0 12.0 0.00 0.00 0.00 64 944.5
20260507005044 64 55 6.0 13.0 0.00 0.00 0.00 63 944.3
20260507004538 65 5 7.0 13.0 0.00 0.00 0.00 62 944.3
20260507004032 66 34 7.0 14.0 0.00 0.00 0.00 61 944.2
20260507003526 66 13 6.0 13.0 0.00 0.00 0.00 62 944.1
20260507003019 66 39 7.0 15.0 0.00 0.00 0.00 61 944.1
20260507003013 67 338 7.0 13.0 0.00 0.00 0.00 61 944.0
20260507002614 67 47 7.0 15.0 0.00 0.00 0.00 61 944.0
20260507001732 67 327 6.0 12.0 0.00 0.00 0.00 61 944.0
20260507000956 67 9 5.0 11.0 0.00 0.00 0.00 62 944.0
20260507000720 67 12 6.0 14.0 0.00 0.00 0.00 60 943.9
20260506235944 67 350 7.0 14.0 0.00 0.00 0.00 59 943.8
20260506235437 67 0 7.0 13.0 0.00 0.00 0.00 59 943.9
20260506234932 67 13 7.0 13.0 0.00 0.00 0.00 59 943.8
20260506234426 68 349 7.0 13.0 0.00 0.00 0.00 57 943.8
20260506233920 68 355 7.0 14.0 0.00 0.00 0.00 57 943.8
20260506233413 68 13 8.0 14.0 0.00 0.00 0.00 55 943.8
20260506232908 68 349 7.0 11.0 0.00 0.00 0.00 56 943.8
20260506232632 69 0 7.0 12.0 0.00 0.00 0.00 57 943.8
20260506231856 69 313 7.0 13.0 0.00 0.00 0.00 55 943.7
20260506231622 69 15 7.0 13.0 0.00 0.00 0.00 56 943.6
20260506230844 69 335 7.0 12.0 0.00 0.00 0.00 56 943.6
20260506230610 69 343 7.0 12.0 0.00 0.00 0.00 55 943.5
20260506225831 69 355 7.0 12.0 0.00 0.00 0.00 56 943.5
20260506225326 69 349 6.0 12.0 0.00 0.00 0.00 54 943.4
20260506224820 70 348 6.0 11.0 0.00 0.00 0.00 55 943.4
20260506224314 70 340 6.0 11.0 0.00 0.00 0.00 55 943.2
20260506224309 70 349 7.0 13.0 0.00 0.00 0.00 55 943.2
20260506223532 71 17 7.0 13.0 0.00 0.00 0.00 53 943.1
20260506222756 71 0 7.0 12.0 0.00 0.00 0.00 53 943.1
20260506222255 71 336 5.0 11.0 0.00 0.00 0.00 51 943.0
20260506221755 72 329 5.0 10.0 0.00 0.00 0.00 55 942.9
20260506221256 73 0 5.0 10.0 0.00 0.00 0.00 50 942.9
20260506220802 73 335 6.0 12.0 0.00 0.00 0.00 51 942.8
20260506220757 73 348 6.0 12.0 0.00 0.00 0.00 50 942.9
20260506215753 73 339 5.0 10.0 0.00 0.00 0.00 53 942.9
20260506215258 73 340 5.0 9.0 0.00 0.00 0.00 52 943.0
20260506215252 73 339 5.0 10.0 0.00 0.00 0.00 51 942.8
20260506214252 73 44 5.0 11.0 0.00 0.00 0.00 50 943.0
20260506213753 73 323 5.0 11.0 0.00 0.00 0.00 52 943.1
20260506213254 73 342 6.0 12.0 0.00 0.00 0.00 52 943.1
20260506212753 73 348 6.0 12.0 0.00 0.00 0.00 51 943.1
20260506212254 73 41 5.0 11.0 0.00 0.00 0.00 52 943.1
20260506211748 73 355 5.0 10.0 0.00 0.00 0.00 51 943.1
20260506211254 73 11 5.0 10.0 0.00 0.00 0.00 52 943.2
20260506211248 73 322 5.0 10.0 0.00 0.00 0.00 54 943.2
20260506210250 72 334 5.0 11.0 0.00 0.00 0.00 55 943.4
20260506210019 72 49 5.0 11.0 0.00 0.00 0.00 52 943.3
20260506205249 72 298 5.0 10.0 0.00 0.00 0.00 55 943.4
20260506205030 72 347 5.0 10.0 0.00 0.00 0.00 54 943.5
20260506204520 72 331 4.0 10.0 0.00 0.00 0.00 53 943.5
20260506203750 72 32 4.0 8.0 0.00 0.00 0.00 55 943.7
20260506203249 72 350 5.0 10.0 0.00 0.00 0.00 55 943.6
20260506202750 72 325 5.0 10.0 0.00 0.00 0.00 53 943.6
20260506202249 71 342 4.0 10.0 0.00 0.00 0.00 55 943.7
20260506201748 71 36 3.0 10.0 0.00 0.00 0.00 55 943.6
20260506201250 71 355 3.0 9.0 0.00 0.00 0.00 55 943.7
20260506200748 71 300 5.0 11.0 0.00 0.00 0.00 56 943.9
20260506200520 71 12 5.0 11.0 0.00 0.00 0.00 58 943.9
20260506195750 71 313 5.0 10.0 0.00 0.00 0.00 60 944.0
20260506195520 70 9 6.0 12.0 0.00 0.00 0.00 57 944.0
20260506195013 69 287 6.0 12.0 0.00 0.00 0.00 56 944.0
20260506194236 69 292 5.0 12.0 0.00 0.00 0.00 61 944.1
20260506193731 68 308 4.0 8.0 0.00 0.00 0.00 59 944.1
20260506193457 67 19 5.0 11.0 0.00 0.00 0.00 63 944.1
20260506192719 68 306 6.0 11.0 0.00 0.00 0.00 59 944.2
20260506192213 67 39 5.0 11.0 0.00 0.00 0.00 61 944.2
20260506191707 67 9 6.0 11.0 0.00 0.00 0.00 59 944.2
20260506191201 66 346 6.0 13.0 0.00 0.00 0.00 61 944.3
20260506190926 66 322 6.0 13.0 0.00 0.00 0.00 61 944.4
20260506190149 66 10 7.0 12.0 0.00 0.00 0.00 64 944.5
20260506185642 66 306 6.0 12.0 0.00 0.00 0.00 63 944.7
20260506185137 65 331 6.0 10.0 0.00 0.00 0.00 64 944.7
20260506184630 65 20 6.0 14.0 0.00 0.00 0.00 63 944.7
20260506184125 65 349 7.0 14.0 0.00 0.00 0.00 64 944.7
20260506183619 64 293 7.0 13.0 0.00 0.00 0.00 67 944.9
20260506183112 64 306 7.0 14.0 0.00 0.00 0.00 65 944.9
20260506182607 64 287 8.0 14.0 0.00 0.00 0.00 65 944.9
20260506182101 64 315 7.0 14.0 0.00 0.00 0.00 64 945.0
20260506181554 64 306 7.0 13.0 0.00 0.00 0.00 66 945.0
20260506181049 64 309 8.0 14.0 0.00 0.00 0.00 66 945.0
20260506180543 64 303 8.0 15.0 0.00 0.00 0.00 66 945.2
20260506180036 63 344 8.0 15.0 0.00 0.00 0.00 67 945.3
20260506175530 63 301 9.0 15.0 0.00 0.00 0.00 69 945.3
20260506175025 62 317 8.0 16.0 0.00 0.00 0.00 68 945.3
20260506174519 62 306 7.0 16.0 0.00 0.00 0.00 69 945.2
20260506174012 61 15 8.0 13.0 0.00 0.00 0.00 72 945.3
20260506173507 60 32 7.0 12.0 0.00 0.00 0.00 72 945.3
20260506173001 59 26 7.0 12.0 0.00 0.00 0.00 73 945.3
20260506172455 58 18 7.0 13.0 0.00 0.00 0.00 75 945.2
20260506171949 58 338 7.0 13.0 0.00 0.00 0.00 74 945.3
20260506171443 58 342 7.0 13.0 0.00 0.00 0.00 74 945.5
20260506170937 57 0 7.0 13.0 0.00 0.00 0.00 77 945.4
20260506170431 57 16 7.0 12.0 0.00 0.00 0.00 78 945.5
20260506165925 56 326 9.0 16.0 0.00 0.00 0.00 76 945.6
20260506165418 57 21 8.0 16.0 0.00 0.00 0.00 76 945.4
20260506164913 56 336 7.0 13.0 0.00 0.00 0.00 77 945.4
20260506164637 56 350 9.0 13.0 0.00 0.00 0.00 78 945.5
20260506163901 56 355 10.0 15.0 0.00 0.00 0.00 77 945.5
20260506163627 56 326 10.0 16.0 0.00 0.00 0.00 77 945.4
20260506162849 56 332 9.0 16.0 0.00 0.00 0.00 79 945.4
20260506162343 55 315 9.0 15.0 0.00 0.00 0.00 78 945.3
20260506161836 55 342 10.0 17.0 0.00 0.00 0.00 80 945.2
20260506161331 55 350 12.0 19.0 0.00 0.00 0.00 79 945.1
20260506160824 55 15 12.0 19.0 0.00 0.00 0.00 79 945.0
20260506160318 55 340 12.0 18.0 0.00 0.00 0.00 79 944.9
20260506160043 55 14 12.0 20.0 0.00 0.00 0.00 79 944.9
20260506155307 55 343 11.0 20.0 0.00 0.00 0.00 78 944.8
20260506154800 55 306 10.0 16.0 0.00 0.00 0.00 79 944.8
20260506154254 55 355 9.0 18.0 0.00 0.00 0.00 79 944.7
20260506153749 55 334 10.0 21.0 0.00 0.00 0.00 81 944.7
20260506153242 54 335 12.0 21.0 0.00 0.00 0.00 80 944.5
20260506152736 54 327 12.0 21.0 0.00 0.00 0.00 81 944.4
20260506152230 54 331 13.0 21.0 0.00 0.00 0.00 80 944.6
20260506151725 54 13 13.0 20.0 0.00 0.00 0.00 81 944.6
20260506151219 54 350 13.0 21.0 0.00 0.00 0.00 80 944.7
20260506150943 54 327 13.0 22.0 0.00 0.00 0.00 80 944.6
20260506150206 54 19 15.0 23.0 0.00 0.00 0.00 80 944.3
20260506145700 54 0 15.0 25.0 0.00 0.00 0.00 80 944.2
20260506145425 55 309 13.0 25.0 0.00 0.00 0.00 79 944.3
20260506144649 55 344 13.0 23.0 0.00 0.00 0.00 82 944.1
20260506144142 54 331 13.0 23.0 0.00 0.00 0.00 82 944.0
20260506143636 53 342 11.0 19.0 0.00 0.00 0.00 84 944.0
20260506143131 53 309 11.0 20.0 0.00 0.00 0.00 83 944.1
20260506142624 53 349 12.0 20.0 0.00 0.00 0.00 84 944.3
20260506142119 52 0 12.0 20.0 0.00 0.00 0.00 84 944.3
20260506141613 52 337 10.0 20.0 0.00 0.00 0.00 83 944.4
20260506141107 52 322 9.0 17.0 0.00 0.00 0.00 84 944.4
20260506140608 52 0 9.0 18.0 0.00 0.00 0.00 84 944.6
20260506140107 52 21 9.0 18.0 0.00 0.00 0.00 84 944.6
20260506135844 52 342 10.0 16.0 0.00 0.00 0.00 84 944.3
20260506135108 52 15 10.0 16.0 0.00 0.00 0.00 84 944.2
20260506134607 52 28 9.0 16.0 0.00 0.00 0.00 85 944.5
20260506134109 52 26 8.0 16.0 0.00 0.00 0.00 84 944.6
20260506133608 52 0 8.0 16.0 0.00 0.00 0.00 85 944.7
20260506133108 52 17 8.0 16.0 0.00 0.00 0.00 85 945.0
20260506132608 52 340 7.0 13.0 0.00 0.00 0.00 85 944.8
20260506132109 52 5 8.0 14.0 0.00 0.00 0.00 84 944.8
20260506131607 52 343 8.0 14.0 0.00 0.00 0.00 85 944.2
20260506131105 52 11 10.0 16.0 0.00 0.00 0.00 85 944.0
20260506130836 52 355 10.0 16.0 0.00 0.00 0.00 85 943.9
20260506130107 52 343 9.0 16.0 0.00 0.00 0.00 85 943.8
20260506125605 52 28 8.0 13.0 0.00 0.00 0.00 85 943.9
20260506125103 52 14 7.0 12.0 0.00 0.00 0.00 85 944.1
20260506124603 52 11 7.0 12.0 0.00 0.00 0.00 85 944.2
20260506124104 52 18 8.0 17.0 0.00 0.00 0.00 86 944.2
20260506123610 52 0 9.0 13.0 0.00 0.00 0.00 86 943.5
20260506123605 52 30 9.0 17.0 0.00 0.00 0.00 85 943.6
20260506122605 52 333 8.0 13.0 0.00 0.00 0.00 86 943.8
20260506122104 52 344 6.0 12.0 0.00 0.00 0.00 87 943.6
20260506121605 52 22 5.0 10.0 0.00 0.00 0.00 87 943.5
20260506121059 52 351 5.0 10.0 0.00 0.00 0.00 87 943.5
20260506120600 52 0 5.0 11.0 0.00 0.00 0.00 87 943.5
20260506120059 52 24 6.0 14.0 0.00 0.00 0.00 86 943.6
20260506115600 52 37 8.0 14.0 0.00 0.00 0.00 86 942.8
20260506115059 52 345 9.0 14.0 0.00 0.00 0.00 85 942.8
20260506114832 52 350 7.0 14.0 0.00 0.00 0.00 85 942.7
20260506114113 52 0 7.0 13.0 0.00 0.00 0.00 86 942.2
20260506114103 52 342 7.0 13.0 0.00 0.00 0.00 86 942.5
20260506113335 52 11 7.0 11.0 0.00 0.00 0.00 86 942.1
20260506112556 52 9 7.0 12.0 0.00 0.00 0.00 86 942.3
20260506112050 52 22 6.0 12.0 0.00 0.00 0.00 86 942.3
20260506111815 52 355 8.0 16.0 0.00 0.00 0.00 86 942.3
20260506111310 51 351 8.0 16.0 0.00 0.00 0.00 86 942.2
20260506110536 52 21 8.0 13.0 0.00 0.00 0.00 86 941.9
20260506110034 52 351 7.0 13.0 0.00 0.00 0.00 86 942.1
20260506105533 52 342 8.0 15.0 0.00 0.00 0.00 86 942.1
20260506105033 52 347 9.0 15.0 0.00 0.00 0.00 86 942.0
20260506104534 52 12 10.0 16.0 0.00 0.00 0.00 86 942.0
20260506104309 52 355 9.0 16.0 0.00 0.00 0.00 86 941.9
20260506103533 52 355 7.0 15.0 0.00 0.00 0.00 86 941.9
20260506103034 52 324 7.0 14.0 0.00 0.00 0.00 87 942.0
20260506102806 52 343 7.0 16.0 0.00 0.00 0.00 87 942.0
20260506102046 52 319 8.0 14.0 0.00 0.00 0.00 87 941.8
20260506102034 52 9 9.0 16.0 0.00 0.00 0.00 87 941.7
20260506101033 51 351 7.0 13.0 0.00 0.00 0.00 88 941.8
20260506100533 51 334 5.0 11.0 0.00 0.00 0.00 87 941.9
20260506100033 51 14 6.0 10.0 0.00 0.00 0.00 87 941.8
20260506095534 51 336 6.0 10.0 0.00 0.00 0.00 87 941.6
20260506095033 51 9 6.0 10.0 0.00 0.00 0.00 87 941.5
20260506094804 52 318 6.0 10.0 0.00 0.00 0.00 87 941.4
20260506094028 52 325 6.0 11.0 0.00 0.00 0.00 87 941.3
20260506093522 52 342 6.0 11.0 0.00 0.00 0.00 86 941.1
20260506093017 52 10 7.0 11.0 0.00 0.00 0.00 87 940.9
20260506092509 52 348 7.0 12.0 0.00 0.00 0.00 86 940.9
20260506092003 52 351 6.0 12.0 0.00 0.00 0.00 86 940.9
20260506091457 52 338 6.0 10.0 0.00 0.00 0.00 86 941.1
20260506091222 52 350 6.0 10.0 0.00 0.00 0.00 86 941.2
20260506090446 52 11 6.0 11.0 0.00 0.00 0.00 85 941.1
20260506085939 53 18 7.0 12.0 0.00 0.00 0.00 85 941.0
20260506085434 53 36 6.0 12.0 0.00 0.00 0.00 85 941.0
20260506084927 53 5 5.0 10.0 0.00 0.00 0.00 85 941.0
20260506084422 53 344 5.0 10.0 0.00 0.00 0.00 85 941.0
20260506083915 53 350 6.0 12.0 0.00 0.00 0.00 85 941.2
20260506083410 53 334 6.0 12.0 0.00 0.00 0.00 85 941.1
20260506082903 53 338 7.0 11.0 0.00 0.00 0.00 85 941.0
20260506082357 53 0 8.0 15.0 0.00 0.00 0.00 85 940.9
20260506081852 53 22 8.0 15.0 0.00 0.00 0.00 85 941.0
20260506081618 54 329 7.0 13.0 0.00 0.00 0.00 84 941.0
20260506080839 54 13 6.0 11.0 0.00 0.00 0.00 84 940.9
20260506080334 54 0 6.0 11.0 0.00 0.00 0.00 84 940.8
20260506073257 55 15 5.0 10.0 0.00 0.00 0.00 82 941.2
20260506073023 55 348 5.0 10.0 0.00 0.00 0.00 82 941.1
20260506072246 55 0 6.0 13.0 0.00 0.00 0.00 82 941.1
20260506071742 55 344 6.0 13.0 0.00 0.00 0.00 82 941.1
20260506071243 55 26 6.0 11.0 0.00 0.00 0.00 82 941.2
20260506070742 56 17 5.0 10.0 0.00 0.00 0.00 81 941.0
20260506070518 56 39 5.0 10.0 0.00 0.00 0.00 81 940.9
20260506062242 57 11 7.0 12.0 0.00 0.00 0.00 78 940.8
20260506061743 58 346 7.0 13.0 0.00 0.00 0.00 78 940.7
20260506061243 58 0 6.0 13.0 0.00 0.00 0.00 77 940.6
20260506060752 58 30 6.0 12.0 0.00 0.00 0.00 76 940.7
20260506060743 58 9 6.0 12.0 0.00 0.00 0.00 77 940.9
20260506051227 61 35 4.0 11.0 0.00 0.00 0.00 71 939.8
20260506050725 62 23 6.0 11.0 0.00 0.00 0.00 70 939.7
20260506050226 62 19 6.0 11.0 0.00 0.00 0.00 69 939.7